Location: Normandy Village
(37.8755°N, 122.2655°W)
Time: 04:36:14
(UTC+00:00)

Cosmos 1908 Rocket - Pass Details

Date: 22 September 2019
Orbit: 606 x 632 km, 82.5° (Epoch: 20 October)

Event Time Altitude Azimuth Distance (km) Brightness Sun altitude
Rises 12:32:57 0° 347° (NNW) 2,869 7.0 -17.2°
Reaches altitude 10° 12:35:12 10° 342° (NNW) 1,962 6.1 -16.7°
Maximum altitude 12:39:25 52° 266° (W) 758 3.6 -15.9°
Drops below altitude 10° 12:43:37 10° 191° (S) 1,957 5.9 -15.1°
Sets 12:45:52 0° 186° (S) 2,860 6.8 -14.7°
